Time,TemperatureF,DewpointF,PressureIn,WindDirection,WindDirectionDegrees,WindSpeedMPH,WindSpeedGustMPH,Humidity,HourlyPrecipIn,Conditions,Clouds,dailyrainin,SoftwareType,DateUTC
2013-05-21 00:15:00,59.3,49.5,29.69,WSW,248,2.0,2.0,70,0.00,,,0.00,Wunderground v.1.12,2013-05-21 04:15:00,
2013-05-21 00:45:00,59.7,49.1,29.66,WNW,290,0.0,0.0,68,0.00,,,0.00,Wunderground v.1.12,2013-05-21 04:45:00,
2013-05-21 01:15:00,59.0,48.8,29.63,WNW,292,0.0,0.0,69,0.00,,,0.00,Wunderground v.1.12,2013-05-21 05:15:00,
2013-05-21 01:45:00,58.6,48.8,29.62,WNW,292,0.0,4.0,70,0.00,,,0.00,Wunderground v.1.12,2013-05-21 05:45:00,
2013-05-21 02:15:00,58.8,49.8,29.60,NW,305,3.0,3.0,72,0.00,,,0.00,Wunderground v.1.12,2013-05-21 06:15:00,
2013-05-21 02:45:00,58.7,50.1,29.61,NW,312,0.0,0.0,73,0.00,,,0.00,Wunderground v.1.12,2013-05-21 06:45:00,
2013-05-21 03:15:00,58.4,50.1,29.58,NW,309,0.0,0.0,74,0.00,,,0.00,Wunderground v.1.12,2013-05-21 07:15:00,
2013-05-21 03:45:00,58.8,50.5,29.53,NW,312,0.0,0.0,74,0.00,,,0.00,Wunderground v.1.12,2013-05-21 07:45:00,
2013-05-21 04:15:00,58.6,50.7,29.56,NW,309,0.0,0.0,75,0.00,,,0.00,Wunderground v.1.12,2013-05-21 08:15:00,
2013-05-21 04:45:00,59.2,51.6,29.56,NW,310,0.0,0.0,76,0.00,,,0.00,Wunderground v.1.12,2013-05-21 08:45:00,
2013-05-21 05:15:00,60.7,53.1,29.59,NW,305,2.0,2.0,76,0.00,,,0.00,Wunderground v.1.12,2013-05-21 09:15:00,
2013-05-21 05:45:00,60.2,52.2,29.60,WNW,290,0.0,0.0,75,0.00,,,0.00,Wunderground v.1.12,2013-05-21 09:45:00,
2013-05-21 06:15:00,59.1,51.2,29.62,West,276,0.0,0.0,75,0.00,,,0.00,Wunderground v.1.12,2013-05-21 10:15:00,
2013-05-21 06:45:00,58.7,50.4,29.64,WNW,288,0.0,0.0,74,0.00,,,0.00,Wunderground v.1.12,2013-05-21 10:45:00,
2013-05-21 07:15:00,59.0,50.7,29.65,WNW,289,0.0,0.0,74,0.00,,,0.00,Wunderground v.1.12,2013-05-21 11:15:00,
2013-05-21 07:45:00,60.7,52.0,29.67,WNW,287,0.0,0.0,73,0.00,,,0.00,Wunderground v.1.12,2013-05-21 11:45:00,
2013-05-21 08:15:00,63.0,53.1,29.67,WNW,282,0.0,0.0,70,0.00,,,0.00,Wunderground v.1.12,2013-05-21 12:15:00,
2013-05-21 08:45:00,64.1,53.3,29.68,WNW,282,0.0,9.0,68,0.00,,,0.00,Wunderground v.1.12,2013-05-21 12:45:00,
2013-05-21 09:15:00,64.1,53.3,29.69,WNW,282,0.0,0.0,68,0.00,,,0.00,Wunderground v.1.12,2013-05-21 13:15:00,
2013-05-21 09:45:00,63.6,52.8,29.70,WNW,282,0.0,0.0,68,0.00,,,0.00,Wunderground v.1.12,2013-05-21 13:45:00,
2013-05-21 10:15:00,62.7,52.0,29.70,WNW,282,0.0,0.0,68,0.00,,,0.00,Wunderground v.1.12,2013-05-21 14:15:00,
2013-05-21 10:45:00,61.2,50.6,29.71,East,94,3.0,4.0,68,0.00,,,0.00,Wunderground v.1.12,2013-05-21 14:45:00,
2013-05-21 11:15:00,59.0,49.6,29.71,NE,44,0.0,0.0,71,0.00,,,0.00,Wunderground v.1.12,2013-05-21 15:15:00,
2013-05-21 11:45:00,59.6,49.8,29.71,ENE,62,4.0,4.0,70,0.00,,,0.00,Wunderground v.1.12,2013-05-21 15:45:00,
2013-05-21 12:15:00,59.3,48.7,29.69,East,100,1.0,1.0,68,0.00,,,0.00,Wunderground v.1.12,2013-05-21 16:15:00,
2013-05-21 12:45:00,60.6,49.6,29.71,East,93,0.0,12.0,67,0.00,,,0.00,Wunderground v.1.12,2013-05-21 16:45:00,
2013-05-21 13:15:00,63.5,50.7,29.70,ENE,74,0.0,0.0,63,0.00,,,0.00,Wunderground v.1.12,2013-05-21 17:15:00,
2013-05-21 13:45:00,63.6,50.3,29.70,East,79,0.0,14.0,62,0.00,,,0.00,Wunderground v.1.12,2013-05-21 17:45:00,
2013-05-21 14:15:00,65.2,50.5,29.69,NE,47,8.0,8.0,59,0.00,,,0.00,Wunderground v.1.12,2013-05-21 18:15:00,
2013-05-21 14:45:00,64.7,50.5,29.66,ESE,106,0.0,12.0,60,0.00,,,0.00,Wunderground v.1.12,2013-05-21 18:45:00,
2013-05-21 15:15:00,67.1,52.3,29.66,East,82,0.0,0.0,59,0.00,,,0.00,Wunderground v.1.12,2013-05-21 19:15:00,
2013-05-21 15:45:00,65.6,50.9,29.65,NNE,28,0.0,13.0,59,0.00,,,0.00,Wunderground v.1.12,2013-05-21 19:45:00,
2013-05-21 16:15:00,65.7,51.9,29.63,East,99,0.0,0.0,61,0.00,,,0.00,Wunderground v.1.12,2013-05-21 20:15:00,
2013-05-21 16:45:00,64.4,51.1,29.62,ENE,78,0.0,14.0,62,0.00,,,0.00,Wunderground v.1.12,2013-05-21 20:45:00,
2013-05-21 17:15:00,63.5,50.2,29.59,ENE,70,1.0,1.0,62,0.00,,,0.00,Wunderground v.1.12,2013-05-21 21:15:00,
2013-05-21 17:45:00,62.0,49.3,29.60,East,80,1.0,11.0,63,0.00,,,0.00,Wunderground v.1.12,2013-05-21 21:45:00,
2013-05-21 18:15:00,60.4,49.4,29.68,NNW,336,5.0,5.0,67,0.00,,,0.00,Wunderground v.1.12,2013-05-21 22:15:00,
2013-05-21 18:45:00,56.2,50.8,29.62,East,84,12.0,12.0,82,0.00,,,0.00,Wunderground v.1.12,2013-05-21 22:45:00,
2013-05-21 19:15:00,55.9,50.5,29.59,ENE,68,4.0,19.0,82,0.27,,,0.83,Wunderground v.1.12,2013-05-21 23:15:00,
2013-05-21 19:45:00,56.2,50.8,29.59,ENE,68,2.0,12.0,82,0.00,,,0.83,Wunderground v.1.12,2013-05-21 23:45:00,
2013-05-21 20:15:00,56.0,50.9,29.56,SE,135,1.0,11.0,83,0.00,,,0.83,Wunderground v.1.12,2013-05-22 00:15:00,
2013-05-21 20:45:00,55.6,50.2,29.56,NNE,23,0.0,8.0,82,0.00,,,0.83,Wunderground v.1.12,2013-05-22 00:45:00,
2013-05-21 21:15:00,55.6,50.5,29.56,N/A,-737280,0.0,0.0,83,0.00,,,0.83,Wunderground v.1.12,2013-05-22 01:15:00,
2013-05-21 21:45:00,55.9,50.8,29.57,N/A,-737280,0.0,5.0,83,0.12,,,0.83,Wunderground v.1.12,2013-05-22 01:45:00,
2013-05-21 22:15:00,56.0,50.9,29.57,N/A,-737280,0.0,0.0,83,0.15,,,0.83,Wunderground v.1.12,2013-05-22 02:15:00,
2013-05-21 22:45:00,55.9,50.8,29.54,N/A,-737280,0.0,0.0,83,0.07,,,0.83,Wunderground v.1.12,2013-05-22 02:45:00,
2013-05-21 23:15:00,55.8,50.7,29.53,N/A,-737280,0.0,0.0,83,0.04,,,0.83,Wunderground v.1.12,2013-05-22 03:15:00,
2013-05-21 23:45:00,55.8,50.7,29.53,N/A,-737280,0.0,0.0,83,0.00,,,0.83,Wunderground v.1.12,2013-05-22 03:45:00,